Regional Weather Roundup
Issued by NWS Northern Indiana

Home | Current Version | Previous Version | Text Only | Print | Product List | Glossary Off
Versions: 1 2 3 4 5 6 7 8 9 10 11 12 13 14 15 16 17 18 19 20 21 22 23 24 25 26 27 28 29 30 31 32 33 34 35 36 37 38 39 40 41 42 43 44 45 46 47 48 49 50

000
ASUS43 KIWX 310810
RWRIWX

KIWX WEATHER ROUNDUP
NATIONAL WEATHER SERVICE NORTHERN INDIANA
400 AM EDT TUE MAY 31 2016

NOTE: "FAIR" INDICATES FEW OR NO CLOUDS BELOW 12,000 FEET WITH NO
SIGNIFICANT WEATHER AND/OR OBSTRUCTIONS TO VISIBILITY.

* THESE STATIONS ARE NOT UNDER NWS QUALITY CONTROL. THEY ALSO MAY NOT
  REPORT WEATHER SUCH AS PRECIPITATION OR FOG.

INZ001>027-310900-
NORTHERN INDIANA

CITY           SKY/WX    TMP DP  RH WIND       PRES   REMARKS
GARY*          MOCLDY    64  64 100 CALM      30.00F
VALPARAISO     PTCLDY    64  58  80 NE3       30.00F
MICHIGAN CITY* PTCLDY    59  59 100 S3        30.01S
LAPORTE*       PTCLDY    67  61  80 CALM      30.01S
KNOX*          CLEAR     61  54  77 CALM      30.00S
SOUTH BEND     PTCLDY    62  56  80 CALM      30.01S
GOSHEN         CLEAR     57  52  83 CALM      30.00F
MONTICELLO*    PTCLDY    65  53  66 CALM      29.97F
LOGANSPORT*    PTCLDY    70  54  56 NE5       29.98F
ROCHESTER*     CLEAR     64  59  82 CALM      30.00S
WARSAW*        CLEAR     59  55  88 CALM      30.00S
ANGOLA*          N/A     57  57 100 CALM      30.01S
FORT WAYNE     PTCLDY    66  54  65 N3        30.00S
HUNTINGTON*    CLEAR    N/A N/A N/A CALM      29.99S
MARION*        CLEAR     64  55  73 NE5       29.99S

$$
INZ028>050-310900-
CENTRAL INDIANA

CITY           SKY/WX    TMP DP  RH WIND       PRES   REMARKS
LAFAYETTE      MOCLDY    66  57  72 N3        29.96F
KOKOMO*        CLEAR     64  52  63 E6        29.98S
MUNCIE*        CLEAR     65  57  75 CALM      29.99S
INDIANAPOLIS   MOCLDY    67  58  72 CALM      29.96S

$$
MIZ043>046-050>051-056>058-064>065-071>073-077>080-310900-
SOUTHWEST LOWER MICHIGAN

CITY           SKY/WX    TMP DP  RH WIND       PRES   REMARKS
BATTLE CREEK   CLOUDY    58  54  86 CALM      30.02S
BENTON HARBOR  CLOUDY    58  55  90 CALM      30.00S
COLDWATER*     CLEAR     56  56  99 CALM      30.02R
HILLSDALE*     CLEAR     58  53  86 CALM      30.02S
HOLLAND        CLEAR     56  53  90 CALM      30.02R
GRAND RAPIDS   CLEAR     58  53  84 SE3       30.02S
KALAMAZOO      CLOUDY    60  55  83 CALM      30.02R
STURGIS*       CLOUDY    61  56  83 CALM      30.00S
THREE RIVERS*  FAIR      59  56  88 CALM      30.02S

$$
OHZ001>008-015>018-024>025-310900-
NORTHWEST OHIO

CITY           SKY/WX    TMP DP  RH WIND       PRES   REMARKS
WAUSEON*         N/A     61  61 100 NW5       30.00R
DEFIANCE       CLEAR     60  54  80 CALM      29.99S
FINDLAY        PTCLDY    65  52  62 N3        29.98R
TOLEDO EXPRESS CLEAR     59  53  80 CALM      29.99R
TOLEDO METCALF CLEAR     64  51  62 CALM      29.99S
LIMA           PTCLDY    66  53  63 CALM      29.99S

$$
AND FOR LAKE MICHIGAN COASTAL AND OPEN LAKE BUOY OBSERVATIONS

STATION/POSITION TEMP    WIND        PRES    VSBY  WAVE
                 AIR SEA DIR/SP/G                  HT/PER
                 (F)     (DEG/KT/KT) (MB)    (MI)  (FT/S)
CALUMET HARBOR    64     140/  4/  5 1015.4R
MICHIGAN CITY     67      50/  7/  8   N/A
BURNS HARBOR      64      70/  4/  8 1016.3R
SAINT JOSEPH      64      CALM  /  2 1016.3S
SOUTH LAKE BUOY   60 56  120/  4/  6 1015.7R         0
4 MI NW BRIDGMAN  67 64   60/  4/  6   N/A           0
MICHIGAN CITY     63 62  180/  2/  4   N/A           0

$$
&&




USA.gov is the U.S. government's official web portal to all federal, state and local government web resources and services.